| time (UTC) | temp C | wind direction | speed KPH | gust KPH | rain 1hr cm | rain 24hr cm | rain mn cm | humidity % | barometer mb |
| 20260508165124 | 18 | 60 | 1.6 | 1.6 | 0.00 | 0.00 | 0.00 | 49 | 1013.7 |
| 20260508164620 | 19 | 67 | 0.0 | 0.0 | 0.00 | 0.00 | 0.00 | 51 | 1013.8 |
| 20260508164118 | 20 | 81 | 0.0 | 1.6 | 0.00 | 0.00 | 0.00 | 44 | 1013.7 |
| 20260508163615 | 20 | 81 | 0.0 | 0.0 | 0.00 | 0.00 | 0.00 | 45 | 1013.9 |
| 20260508163112 | 19 | 251 | 1.6 | 3.2 | 0.00 | 0.00 | 0.00 | 45 | 1013.8 |
| 20260508162608 | 18 | 29 | 1.6 | 3.2 | 0.00 | 0.00 | 0.00 | 46 | 1013.9 |
| 20260508162106 | 18 | 58 | 3.2 | 3.2 | 0.00 | 0.00 | 0.00 | 53 | 1014.0 |
| 20260508161602 | 18 | 113 | 1.6 | 3.2 | 0.00 | 0.00 | 0.00 | 52 | 1014.2 |
| 20260508161100 | 18 | 52 | 3.2 | 3.2 | 0.00 | 0.00 | 0.00 | 54 | 1014.1 |
| 20260508160558 | 18 | 5 | 1.6 | 3.2 | 0.00 | 0.00 | 0.00 | 53 | 1014.3 |
| 20260508160055 | 18 | 62 | 1.6 | 3.2 | 0.00 | 0.00 | 0.00 | 55 | 1014.1 |
| 20260508155552 | 18 | 55 | 1.6 | 3.2 | 0.00 | 0.00 | 0.00 | 55 | 1014.3 |
| 20260508155049 | 18 | 65 | 0.0 | 0.0 | 0.00 | 0.00 | 0.00 | 56 | 1014.5 |
| 20260508154546 | 18 | 215 | 0.0 | 1.6 | 0.00 | 0.00 | 0.00 | 52 | 1014.4 |
| 20260508154043 | 17 | 210 | 0.0 | 1.6 | 0.00 | 0.00 | 0.00 | 55 | 1014.6 |
| 20260508153539 | 17 | 77 | 0.0 | 0.0 | 0.00 | 0.00 | 0.00 | 61 | 1014.6 |
| 20260508153036 | 17 | 73 | 0.0 | 0.0 | 0.00 | 0.00 | 0.00 | 60 | 1014.5 |
| 20260508152533 | 17 | 59 | 3.2 | 3.2 | 0.00 | 0.00 | 0.00 | 64 | 1014.3 |
| 20260508152028 | 17 | 77 | 0.0 | 0.0 | 0.00 | 0.00 | 0.00 | 63 | 1014.4 |
| 20260508151525 | 16 | 72 | 1.6 | 3.2 | 0.00 | 0.00 | 0.00 | 61 | 1014.4 |
| 20260508151022 | 16 | 73 | 0.0 | 0.0 | 0.00 | 0.00 | 0.00 | 62 | 1014.5 |
| 20260508150519 | 16 | 74 | 0.0 | 0.0 | 0.00 | 0.00 | 0.00 | 64 | 1014.2 |
| 20260508150015 | 16 | 75 | 0.0 | 1.6 | 0.00 | 0.00 | 0.00 | 61 | 1014.3 |
| 20260508145512 | 16 | 62 | 0.0 | 1.6 | 0.00 | 0.00 | 0.00 | 65 | 1014.4 |
| 20260508145008 | 16 | 58 | 1.6 | 3.2 | 0.00 | 0.00 | 0.00 | 64 | 1014.4 |
| 20260508144506 | 16 | 71 | 0.0 | 0.0 | 0.00 | 0.00 | 0.00 | 68 | 1014.4 |
| 20260508144003 | 16 | 66 | 0.0 | 0.0 | 0.00 | 0.00 | 0.00 | 66 | 1014.6 |
| 20260508143500 | 16 | 72 | 1.6 | 3.2 | 0.00 | 0.00 | 0.00 | 65 | 1014.6 |
| 20260508142956 | 16 | 66 | 0.0 | 1.6 | 0.00 | 0.00 | 0.00 | 71 | 1014.4 |
| 20260508142454 | 16 | 63 | 1.6 | 1.6 | 0.00 | 0.00 | 0.00 | 68 | 1014.4 |
| 20260508141950 | 15 | 62 | 1.6 | 3.2 | 0.00 | 0.00 | 0.00 | 68 | 1014.8 |
| 20260508141447 | 15 | 62 | 1.6 | 3.2 | 0.00 | 0.00 | 0.00 | 69 | 1014.7 |
| 20260508140945 | 15 | 65 | 0.0 | 1.6 | 0.00 | 0.00 | 0.00 | 68 | 1014.7 |
| 20260508140442 | 15 | 69 | 0.0 | 0.0 | 0.00 | 0.00 | 0.00 | 71 | 1014.6 |
| 20260508135937 | 15 | 77 | 0.0 | 1.6 | 0.00 | 0.00 | 0.00 | 72 | 1014.7 |
| 20260508135434 | 15 | 77 | 0.0 | 0.0 | 0.00 | 0.00 | 0.00 | 74 | 1014.7 |
| 20260508134931 | 15 | 75 | 0.0 | 0.0 | 0.00 | 0.00 | 0.00 | 75 | 1014.7 |
| 20260508134427 | 14 | 69 | 0.0 | 0.0 | 0.00 | 0.00 | 0.00 | 75 | 1014.5 |
| 20260508133924 | 14 | 77 | 0.0 | 0.0 | 0.00 | 0.00 | 0.00 | 76 | 1014.3 |
| 20260508133421 | 14 | 79 | 0.0 | 1.6 | 0.00 | 0.00 | 0.00 | 76 | 1014.5 |
| 20260508132918 | 14 | 73 | 0.0 | 0.0 | 0.00 | 0.00 | 0.00 | 85 | 1014.4 |
| 20260508132416 | 13 | 74 | 0.0 | 1.6 | 0.00 | 0.00 | 0.00 | 85 | 1014.3 |
| 20260508131913 | 14 | 31 | 1.6 | 3.2 | 0.00 | 0.00 | 0.00 | 86 | 1014.4 |
| 20260508131408 | 13 | 76 | 0.0 | 0.0 | 0.00 | 0.00 | 0.00 | 88 | 1014.3 |
| 20260508130905 | 13 | 65 | 0.0 | 1.6 | 0.00 | 0.00 | 0.00 | 89 | 1014.5 |
| 20260508130402 | 12 | 70 | 0.0 | 1.6 | 0.00 | 0.00 | 0.00 | 92 | 1014.4 |
| 20260508125857 | 12 | 70 | 0.0 | 0.0 | 0.00 | 0.00 | 0.00 | 94 | 1014.1 |
| 20260508125354 | 12 | 68 | 0.0 | 0.0 | 0.00 | 0.00 | 0.00 | 98 | 1014.2 |
| 20260508124852 | 12 | 68 | 0.0 | 1.6 | 0.00 | 0.00 | 0.00 | 99 | 1014.0 |
| 20260508124349 | 12 | 84 | 0.0 | 0.0 | 0.00 | 0.00 | 0.00 | 99 | 1014.1 |
| 20260508123847 | 12 | 77 | 0.0 | 0.0 | 0.00 | 0.00 | 0.00 | 99 | 1014.0 |
| 20260508123345 | 12 | 76 | 0.0 | 0.0 | 0.00 | 0.00 | 0.00 | 99 | 1014.0 |
| 20260508122841 | 12 | 74 | 0.0 | 0.0 | 0.00 | 0.00 | 0.00 | 99 | 1013.8 |
| 20260508122338 | 12 | 87 | 0.0 | 0.0 | 0.00 | 0.00 | 0.00 | 99 | 1013.9 |
| 20260508121836 | 12 | 84 | 0.0 | 0.0 | 0.00 | 0.00 | 0.00 | 99 | 1013.7 |
| 20260508121334 | 11 | 83 | 0.0 | 0.0 | 0.00 | 0.00 | 0.00 | 99 | 1013.6 |
| 20260508120831 | 11 | 73 | 0.0 | 0.0 | 0.00 | 0.00 | 0.00 | 99 | 1013.6 |
| 20260508120329 | 11 | 60 | 0.0 | 0.0 | 0.00 | 0.00 | 0.00 | 99 | 1013.5 |
| 20260508115826 | 11 | 72 | 0.0 | 1.6 | 0.00 | 0.00 | 0.00 | 99 | 1013.5 |
| 20260508115324 | 12 | 63 | 0.0 | 0.0 | 0.00 | 0.00 | 0.00 | 99 | 1013.5 |
| 20260508114820 | 12 | 75 | 0.0 | 0.0 | 0.00 | 0.00 | 0.00 | 99 | 1013.3 |
| 20260508114317 | 12 | 79 | 0.0 | 0.0 | 0.00 | 0.00 | 0.00 | 99 | 1013.2 |
| 20260508113813 | 12 | 79 | 0.0 | 0.0 | 0.00 | 0.00 | 0.00 | 99 | 1013.3 |
| 20260508113312 | 12 | 79 | 0.0 | 0.0 | 0.00 | 0.00 | 0.00 | 99 | 1013.0 |
| 20260508112808 | 12 | 79 | 0.0 | 0.0 | 0.00 | 0.00 | 0.00 | 99 | 1013.0 |
| 20260508112307 | 12 | 79 | 0.0 | 0.0 | 0.00 | 0.00 | 0.00 | 99 | 1013.0 |
| 20260508111801 | 12 | 79 | 0.0 | 0.0 | 0.00 | 0.00 | 0.00 | 99 | 1012.9 |
| 20260508111259 | 11 | 79 | 0.0 | 0.0 | 0.00 | 0.00 | 0.00 | 99 | 1012.8 |
| 20260508110756 | 11 | 79 | 0.0 | 0.0 | 0.00 | 0.00 | 0.00 | 99 | 1012.6 |
| 20260508110254 | 11 | 79 | 0.0 | 0.0 | 0.00 | 0.00 | 0.00 | 99 | 1012.7 |
| 20260508105753 | 11 | 79 | 0.0 | 0.0 | 0.00 | 0.00 | 0.00 | 99 | 1012.4 |
| 20260508105250 | 11 | 79 | 0.0 | 0.0 | 0.00 | 0.00 | 0.00 | 99 | 1012.5 |
| 20260508104747 | 11 | 79 | 0.0 | 0.0 | 0.00 | 0.00 | 0.00 | 99 | 1012.5 |
| 20260508104244 | 11 | 79 | 0.0 | 0.0 | 0.00 | 0.00 | 0.00 | 99 | 1012.5 |
| 20260508103742 | 11 | 79 | 0.0 | 0.0 | 0.00 | 0.00 | 0.00 | 99 | 1012.4 |
| 20260508103238 | 11 | 79 | 0.0 | 0.0 | 0.00 | 0.00 | 0.00 | 99 | 1012.0 |
| 20260508102735 | 11 | 79 | 0.0 | 0.0 | 0.00 | 0.00 | 0.00 | 99 | 1012.1 |
| 20260508102233 | 11 | 79 | 0.0 | 0.0 | 0.00 | 0.00 | 0.00 | 99 | 1011.8 |
| 20260508101730 | 11 | 79 | 0.0 | 0.0 | 0.00 | 0.00 | 0.00 | 99 | 1011.7 |
| 20260508101228 | 11 | 79 | 0.0 | 0.0 | 0.00 | 0.00 | 0.00 | 99 | 1011.7 |
| 20260508100726 | 11 | 79 | 0.0 | 0.0 | 0.00 | 0.00 | 0.00 | 99 | 1011.6 |
| 20260508100224 | 11 | 79 | 0.0 | 0.0 | 0.00 | 0.00 | 0.00 | 99 | 1011.8 |
| 20260508095719 | 11 | 82 | 0.0 | 0.0 | 0.00 | 0.00 | 0.00 | 99 | 1011.8 |
| 20260508095217 | 11 | 82 | 0.0 | 0.0 | 0.00 | 0.00 | 0.00 | 99 | 1011.8 |
| 20260508094713 | 11 | 82 | 0.0 | 0.0 | 0.00 | 0.00 | 0.00 | 99 | 1011.7 |
| 20260508094211 | 11 | 82 | 0.0 | 0.0 | 0.00 | 0.00 | 0.00 | 99 | 1011.6 |
| 20260508093707 | 11 | 82 | 0.0 | 0.0 | 0.00 | 0.00 | 0.00 | 99 | 1011.5 |
| 20260508093206 | 11 | 82 | 0.0 | 0.0 | 0.00 | 0.00 | 0.00 | 99 | 1011.6 |
| 20260508092702 | 11 | 82 | 0.0 | 0.0 | 0.00 | 0.00 | 0.00 | 99 | 1011.4 |
| 20260508092201 | 11 | 82 | 0.0 | 0.0 | 0.00 | 0.00 | 0.00 | 99 | 1011.5 |
| 20260508091658 | 11 | 82 | 0.0 | 0.0 | 0.00 | 0.00 | 0.00 | 99 | 1011.6 |
| 20260508091155 | 11 | 82 | 0.0 | 0.0 | 0.00 | 0.00 | 0.00 | 99 | 1011.4 |
| 20260508090652 | 11 | 82 | 0.0 | 0.0 | 0.00 | 0.00 | 0.00 | 99 | 1011.4 |
| 20260508090150 | 11 | 82 | 0.0 | 0.0 | 0.00 | 0.00 | 0.00 | 99 | 1011.5 |
| 20260508085645 | 11 | 82 | 0.0 | 0.0 | 0.00 | 0.00 | 0.00 | 99 | 1011.3 |
| 20260508085143 | 12 | 82 | 0.0 | 0.0 | 0.00 | 0.00 | 0.00 | 99 | 1011.3 |
| 20260508084639 | 12 | 82 | 0.0 | 0.0 | 0.00 | 0.00 | 0.00 | 99 | 1011.4 |
| 20260508084136 | 12 | 82 | 0.0 | 0.0 | 0.00 | 0.00 | 0.00 | 99 | 1011.5 |
| 20260508083634 | 12 | 82 | 0.0 | 0.0 | 0.00 | 0.00 | 0.00 | 99 | 1011.4 |
| 20260508083131 | 12 | 82 | 0.0 | 0.0 | 0.00 | 0.00 | 0.00 | 99 | 1011.4 |
| 20260508082626 | 12 | 82 | 0.0 | 0.0 | 0.00 | 0.00 | 0.00 | 99 | 1011.1 |
| 20260508082124 | 12 | 82 | 0.0 | 0.0 | 0.00 | 0.00 | 0.00 | 99 | 1011.3 |
| 20260508081621 | 12 | 82 | 0.0 | 0.0 | 0.00 | 0.00 | 0.00 | 99 | 1011.2 |
| 20260508081118 | 12 | 82 | 0.0 | 0.0 | 0.00 | 0.00 | 0.00 | 99 | 1011.2 |
| 20260508080615 | 12 | 82 | 0.0 | 0.0 | 0.00 | 0.00 | 0.00 | 99 | 1010.9 |
| 20260508080113 | 12 | 82 | 0.0 | 0.0 | 0.00 | 0.00 | 0.00 | 99 | 1010.8 |
| 20260508075609 | 12 | 82 | 0.0 | 0.0 | 0.00 | 0.00 | 0.00 | 99 | 1010.8 |
| 20260508075106 | 12 | 82 | 0.0 | 0.0 | 0.00 | 0.00 | 0.00 | 99 | 1010.9 |
| 20260508074604 | 12 | 82 | 0.0 | 0.0 | 0.00 | 0.00 | 0.00 | 99 | 1010.9 |
| 20260508074101 | 12 | 81 | 0.0 | 0.0 | 0.00 | 0.00 | 0.00 | 99 | 1010.9 |
| 20260508073558 | 12 | 82 | 0.0 | 0.0 | 0.00 | 0.00 | 0.00 | 99 | 1010.7 |
| 20260508073056 | 12 | 81 | 0.0 | 0.0 | 0.00 | 0.00 | 0.00 | 99 | 1010.7 |
| 20260508072551 | 12 | 82 | 0.0 | 0.0 | 0.00 | 0.00 | 0.00 | 99 | 1010.5 |
| 20260508072048 | 12 | 82 | 0.0 | 0.0 | 0.00 | 0.00 | 0.00 | 99 | 1010.7 |
| 20260508071546 | 12 | 81 | 0.0 | 0.0 | 0.00 | 0.00 | 0.00 | 99 | 1010.7 |
| 20260508071044 | 12 | 81 | 0.0 | 0.0 | 0.00 | 0.00 | 0.00 | 99 | 1010.7 |
| 20260508070541 | 12 | 81 | 0.0 | 0.0 | 0.00 | 0.00 | 0.00 | 99 | 1010.7 |
| 20260508070040 | 12 | 81 | 0.0 | 0.0 | 0.00 | 0.00 | 0.00 | 99 | 1010.6 |
| 20260508065537 | 12 | 81 | 0.0 | 0.0 | 0.00 | 0.00 | 0.00 | 99 | 1010.7 |
| 20260508065035 | 12 | 81 | 0.0 | 0.0 | 0.00 | 0.00 | 0.00 | 99 | 1010.6 |
| 20260508064532 | 12 | 81 | 0.0 | 0.0 | 0.00 | 0.00 | 0.00 | 99 | 1010.4 |
| 20260508064030 | 13 | 82 | 0.0 | 0.0 | 0.00 | 0.00 | 0.00 | 99 | 1010.6 |
| 20260508063527 | 13 | 82 | 0.0 | 0.0 | 0.00 | 0.00 | 0.00 | 99 | 1010.5 |
| 20260508063025 | 13 | 81 | 0.0 | 0.0 | 0.00 | 0.00 | 0.00 | 99 | 1010.6 |
| 20260508062522 | 13 | 81 | 0.0 | 0.0 | 0.00 | 0.00 | 0.00 | 99 | 1010.7 |
| 20260508062019 | 13 | 81 | 0.0 | 0.0 | 0.00 | 0.00 | 0.00 | 99 | 1010.8 |
| 20260508061517 | 13 | 81 | 0.0 | 0.0 | 0.00 | 0.00 | 0.00 | 99 | 1010.7 |
| 20260508061013 | 13 | 82 | 0.0 | 0.0 | 0.00 | 0.00 | 0.00 | 99 | 1010.8 |
| 20260508060510 | 13 | 81 | 0.0 | 0.0 | 0.00 | 0.00 | 0.00 | 99 | 1010.8 |
| 20260508060008 | 13 | 81 | 0.0 | 0.0 | 0.00 | 0.00 | 0.00 | 99 | 1010.8 |
| 20260508055503 | 13 | 81 | 0.0 | 0.0 | 0.00 | 0.00 | 0.00 | 99 | 1010.7 |
| 20260508055000 | 13 | 81 | 0.0 | 0.0 | 0.00 | 0.00 | 0.00 | 99 | 1010.8 |
| 20260508054457 | 13 | 81 | 0.0 | 0.0 | 0.00 | 0.00 | 0.00 | 99 | 1010.7 |
| 20260508053953 | 13 | 81 | 0.0 | 0.0 | 0.00 | 0.00 | 0.00 | 99 | 1011.0 |
| 20260508053450 | 13 | 81 | 0.0 | 0.0 | 0.00 | 0.00 | 0.00 | 99 | 1010.7 |
| 20260508052948 | 13 | 81 | 0.0 | 0.0 | 0.00 | 0.00 | 0.00 | 99 | 1010.9 |
| 20260508052446 | 13 | 81 | 0.0 | 0.0 | 0.00 | 0.00 | 0.00 | 99 | 1010.8 |
| 20260508051942 | 13 | 81 | 0.0 | 0.0 | 0.00 | 0.00 | 0.00 | 99 | 1010.5 |
| 20260508051438 | 13 | 81 | 0.0 | 0.0 | 0.00 | 0.00 | 0.00 | 99 | 1010.8 |
| 20260508050934 | 13 | 79 | 0.0 | 0.0 | 0.00 | 0.00 | 0.00 | 99 | 1010.9 |
| 20260508050431 | 13 | 79 | 0.0 | 0.0 | 0.00 | 0.00 | 0.00 | 99 | 1010.8 |
| 20260508045927 | 13 | 79 | 0.0 | 0.0 | 0.00 | 0.00 | 0.00 | 99 | 1010.6 |
| 20260508045425 | 13 | 79 | 0.0 | 0.0 | 0.00 | 0.00 | 0.00 | 99 | 1010.5 |
| 20260508044922 | 13 | 79 | 0.0 | 0.0 | 0.00 | 0.00 | 0.00 | 99 | 1010.5 |
| 20260508044419 | 13 | 79 | 0.0 | 0.0 | 0.00 | 0.00 | 0.00 | 99 | 1010.4 |
| 20260508043914 | 14 | 79 | 0.0 | 0.0 | 0.00 | 0.00 | 0.00 | 99 | 1010.4 |
| 20260508043412 | 14 | 79 | 0.0 | 0.0 | 0.00 | 0.00 | 0.00 | 99 | 1010.2 |
| 20260508042908 | 14 | 79 | 0.0 | 0.0 | 0.00 | 0.00 | 0.00 | 99 | 1010.2 |
| 20260508042406 | 14 | 79 | 0.0 | 0.0 | 0.00 | 0.00 | 0.00 | 99 | 1010.4 |
| 20260508041903 | 14 | 79 | 0.0 | 0.0 | 0.00 | 0.00 | 0.00 | 99 | 1010.2 |
| 20260508041359 | 14 | 79 | 0.0 | 0.0 | 0.00 | 0.00 | 0.00 | 99 | 1010.4 |
| 20260508040855 | 14 | 79 | 0.0 | 0.0 | 0.00 | 0.00 | 0.00 | 99 | 1010.3 |
| 20260508040353 | 14 | 78 | 0.0 | 0.0 | 0.00 | 0.00 | 0.00 | 99 | 1010.2 |
| 20260508035851 | 14 | 78 | 0.0 | 0.0 | 0.00 | 5.18 | 5.18 | 99 | 1010.4 |
| 20260508035348 | 14 | 78 | 0.0 | 0.0 | 0.18 | 5.18 | 5.18 | 99 | 1010.2 |
| 20260508034844 | 14 | 78 | 0.0 | 0.0 | 0.18 | 5.18 | 5.18 | 99 | 1010.2 |
| 20260508034342 | 14 | 78 | 0.0 | 0.0 | 0.00 | 5.16 | 5.16 | 99 | 1010.2 |
| 20260508033838 | 14 | 78 | 0.0 | 0.0 | 0.00 | 5.16 | 5.16 | 99 | 1010.1 |
| 20260508033336 | 14 | 78 | 0.0 | 0.0 | 0.00 | 5.16 | 5.16 | 99 | 1010.1 |
| 20260508032833 | 14 | 75 | 0.0 | 0.0 | 0.00 | 5.16 | 5.16 | 99 | 1010.0 |
| 20260508032331 | 14 | 78 | 0.0 | 0.0 | 0.00 | 5.16 | 5.16 | 99 | 1009.9 |
| 20260508031827 | 14 | 79 | 0.0 | 0.0 | 0.00 | 5.16 | 5.16 | 99 | 1010.2 |
| 20260508031324 | 14 | 78 | 0.0 | 0.0 | 0.00 | 5.16 | 5.16 | 99 | 1010.1 |
| 20260508030821 | 14 | 86 | 0.0 | 0.0 | 0.00 | 5.16 | 5.16 | 99 | 1010.1 |
| 20260508030318 | 14 | 89 | 0.0 | 0.0 | 0.00 | 5.16 | 5.16 | 99 | 1010.1 |
| 20260508025814 | 14 | 89 | 0.0 | 0.0 | 0.00 | 5.16 | 5.16 | 99 | 1009.8 |
| 20260508025312 | 14 | 78 | 0.0 | 0.0 | 0.00 | 5.16 | 5.16 | 99 | 1009.9 |
| 20260508024808 | 14 | 77 | 0.0 | 0.0 | 0.00 | 5.16 | 5.16 | 99 | 1009.9 |
| 20260508024305 | 14 | 82 | 0.0 | 0.0 | 0.00 | 5.16 | 5.16 | 99 | 1009.8 |
| 20260508023802 | 14 | 76 | 0.0 | 0.0 | 0.00 | 5.16 | 5.16 | 99 | 1009.6 |
| 20260508023259 | 14 | 82 | 0.0 | 0.0 | 0.00 | 5.16 | 5.16 | 99 | 1009.8 |
| 20260508022754 | 14 | 71 | 0.0 | 0.0 | 0.00 | 5.16 | 5.16 | 99 | 1009.8 |
| 20260508022251 | 14 | 71 | 0.0 | 0.0 | 0.00 | 5.16 | 5.16 | 99 | 1009.5 |
| 20260508021748 | 14 | 72 | 0.0 | 0.0 | 0.00 | 5.16 | 5.16 | 99 | 1009.5 |
| 20260508021243 | 14 | 73 | 0.0 | 0.0 | 0.00 | 5.16 | 5.16 | 99 | 1009.4 |
| 20260508020741 | 14 | 74 | 0.0 | 0.0 | 0.00 | 5.16 | 5.16 | 99 | 1009.1 |
| 20260508020238 | 14 | 65 | 0.0 | 0.0 | 0.00 | 5.16 | 5.16 | 99 | 1009.1 |
| 20260508015735 | 14 | 62 | 0.0 | 1.6 | 0.00 | 5.16 | 5.16 | 99 | 1009.0 |
| 20260508015232 | 14 | 76 | 0.0 | 0.0 | 0.00 | 5.16 | 5.16 | 99 | 1009.1 |
| 20260508014729 | 14 | 68 | 0.0 | 0.0 | 0.00 | 5.16 | 5.16 | 99 | 1009.0 |
| 20260508014226 | 14 | 81 | 0.0 | 0.0 | 0.00 | 5.16 | 5.16 | 99 | 1009.0 |
| 20260508013721 | 14 | 64 | 1.6 | 1.6 | 0.00 | 5.16 | 5.16 | 99 | 1008.8 |
| 20260508013218 | 14 | 68 | 1.6 | 3.2 | 0.00 | 5.16 | 5.16 | 99 | 1008.4 |
| 20260508012716 | 14 | 35 | 3.2 | 3.2 | 0.00 | 5.16 | 5.16 | 99 | 1008.2 |
| 20260508012213 | 14 | 61 | 1.6 | 3.2 | 0.00 | 5.16 | 5.16 | 99 | 1008.5 |
| 20260508011711 | 14 | 45 | 0.0 | 1.6 | 0.00 | 5.16 | 5.16 | 99 | 1008.3 |
| 20260508011208 | 14 | 63 | 1.6 | 1.6 | 0.00 | 5.16 | 5.16 | 99 | 1008.1 |
| 20260508010705 | 14 | 74 | 3.2 | 3.2 | 0.00 | 5.16 | 5.16 | 99 | 1008.2 |
| 20260508010203 | 15 | 63 | 0.0 | 1.6 | 0.00 | 5.16 | 5.16 | 99 | 1007.9 |
| 20260508005700 | 15 | 62 | 1.6 | 1.6 | 0.00 | 5.16 | 5.16 | 99 | 1007.9 |
| 20260508005156 | 15 | 68 | 0.0 | 1.6 | 0.00 | 5.16 | 5.16 | 99 | 1008.0 |
| 20260508004652 | 15 | 52 | 0.0 | 1.6 | 0.00 | 5.16 | 5.16 | 99 | 1008.2 |
| 20260508004148 | 15 | 72 | 0.0 | 0.0 | 0.00 | 5.16 | 5.16 | 99 | 1008.0 |
| 20260508003645 | 15 | 72 | 0.0 | 0.0 | 0.00 | 5.16 | 5.16 | 99 | 1007.7 |
| 20260508003143 | 15 | 89 | 0.0 | 0.0 | 0.00 | 5.16 | 5.16 | 99 | 1007.6 |
| 20260508002639 | 15 | 71 | 0.0 | 0.0 | 0.00 | 5.16 | 5.16 | 99 | 1007.5 |
| 20260508002137 | 15 | 64 | 0.0 | 1.6 | 0.43 | 5.16 | 5.16 | 99 | 1007.4 |
| 20260508001631 | 15 | 64 | 3.2 | 6.4 | 1.50 | 5.16 | 5.16 | 99 | 1007.2 |
| 20260508001128 | 15 | 46 | 1.6 | 6.4 | 2.16 | 5.08 | 5.08 | 99 | 1006.7 |
| 20260508000624 | 15 | 64 | 0.0 | 1.6 | 1.98 | 4.93 | 4.93 | 98 | 1006.9 |
| 20260508000122 | 16 | 61 | 3.2 | 4.8 | 1.98 | 4.75 | 4.75 | 97 | 1006.7 |
| 20260507235618 | 17 | 66 | 0.0 | 0.0 | 1.98 | 4.60 | 4.60 | 95 | 1006.7 |
| 20260507235116 | 17 | 65 | 0.0 | 1.6 | 0.61 | 4.37 | 4.37 | 92 | 1006.6 |
| 20260507234612 | 17 | 71 | 3.2 | 3.2 | 0.00 | 4.27 | 4.27 | 89 | 1006.1 |
| 20260507234108 | 18 | 67 | 0.0 | 0.0 | 0.00 | 4.27 | 4.27 | 89 | 1005.8 |
| 20260507233606 | 18 | 70 | 0.0 | 1.6 | 0.00 | 4.27 | 4.27 | 88 | 1005.5 |
| 20260507233104 | 18 | 72 | 0.0 | 0.0 | 0.00 | 4.27 | 4.27 | 87 | 1005.5 |
| 20260507232600 | 18 | 150 | 1.6 | 1.6 | 0.00 | 4.27 | 4.27 | 87 | 1005.0 |
| 20260507232058 | 19 | 57 | 3.2 | 3.2 | 0.00 | 4.27 | 4.27 | 86 | 1005.3 |
| 20260507231553 | 22 | 61 | 8.0 | 11.3 | 0.00 | 4.27 | 4.27 | 82 | 1005.0 |
| 20260507231051 | 24 | 67 | 3.2 | 4.8 | 0.00 | 4.27 | 4.27 | 73 | 1004.4 |
| 20260507230547 | 24 | 339 | 1.6 | 1.6 | 0.00 | 4.27 | 4.27 | 72 | 1004.3 |
| 20260507230044 | 24 | 256 | 6.4 | 9.7 | 0.00 | 4.27 | 4.27 | 72 | 1003.9 |
| 20260507225539 | 24 | 307 | 6.4 | 9.7 | 0.00 | 4.27 | 4.27 | 72 | 1003.9 |
| 20260507225036 | 24 | 227 | 4.8 | 6.4 | 0.00 | 4.27 | 4.27 | 72 | 1003.8 |
| 20260507224531 | 24 | 281 | 8.0 | 12.9 | 0.00 | 4.27 | 4.27 | 73 | 1003.9 |
| 20260507224028 | 24 | 272 | 4.8 | 4.8 | 0.00 | 4.27 | 4.27 | 74 | 1003.5 |
| 20260507223524 | 24 | 298 | 4.8 | 4.8 | 0.00 | 4.27 | 4.27 | 74 | 1003.6 |
| 20260507223022 | 24 | 209 | 1.6 | 3.2 | 0.00 | 4.27 | 4.27 | 74 | 1003.4 |
| 20260507222519 | 24 | 220 | 3.2 | 3.2 | 0.00 | 4.27 | 4.27 | 74 | 1003.8 |
| 20260507222015 | 25 | 320 | 3.2 | 3.2 | 0.00 | 4.27 | 4.27 | 72 | 1003.9 |
| 20260507221512 | 25 | 261 | 6.4 | 11.3 | 0.00 | 4.27 | 4.27 | 72 | 1003.6 |
| 20260507221008 | 25 | 316 | 4.8 | 4.8 | 0.00 | 4.27 | 4.27 | 73 | 1003.7 |
| 20260507220506 | 25 | 270 | 8.0 | 9.7 | 0.00 | 4.27 | 4.27 | 73 | 1003.6 |
| 20260507220002 | 24 | 292 | 6.4 | 6.4 | 0.00 | 4.27 | 4.27 | 74 | 1003.7 |
| 20260507215458 | 25 | 262 | 4.8 | 4.8 | 0.00 | 4.27 | 4.27 | 70 | 1003.5 |
| 20260507214957 | 24 | 283 | 3.2 | 4.8 | 0.00 | 4.27 | 4.27 | 72 | 1003.9 |
| 20260507214453 | 25 | 243 | 3.2 | 4.8 | 0.00 | 4.27 | 4.27 | 71 | 1003.8 |
| 20260507213949 | 25 | 299 | 14.5 | 17.7 | 0.00 | 4.27 | 4.27 | 69 | 1003.6 |
| 20260507213446 | 25 | 232 | 1.6 | 1.6 | 0.00 | 4.27 | 4.27 | 74 | 1003.7 |
| 20260507212943 | 25 | 313 | 1.6 | 1.6 | 0.00 | 4.27 | 4.27 | 70 | 1003.6 |
| 20260507212438 | 26 | 285 | 1.6 | 1.6 | 0.00 | 4.27 | 4.27 | 70 | 1003.8 |
| 20260507211936 | 25 | 221 | 0.0 | 0.0 | 0.00 | 4.27 | 4.27 | 72 | 1003.7 |
| 20260507211432 | 25 | 277 | 9.7 | 12.9 | 0.00 | 4.27 | 4.27 | 72 | 1003.7 |
| 20260507210929 | 26 | 266 | 11.3 | 12.9 | 0.00 | 4.27 | 4.27 | 72 | 1003.7 |
| 20260507210426 | 25 | 286 | 4.8 | 4.8 | 0.00 | 4.27 | 4.27 | 72 | 1004.0 |
| 20260507205923 | 24 | 255 | 0.0 | 0.0 | 0.00 | 4.27 | 4.27 | 74 | 1003.9 |
| 20260507205420 | 24 | 283 | 6.4 | 6.4 | 0.00 | 4.27 | 4.27 | 74 | 1004.0 |
| 20260507204916 | 25 | 286 | 3.2 | 6.4 | 0.00 | 4.27 | 4.27 | 72 | 1003.4 |
| 20260507204412 | 25 | 270 | 3.2 | 4.8 | 0.00 | 4.27 | 4.27 | 70 | 1003.5 |
| 20260507203910 | 25 | 266 | 0.0 | 0.0 | 0.00 | 4.27 | 4.27 | 73 | 1003.5 |
| 20260507203408 | 25 | 196 | 0.0 | 0.0 | 0.00 | 4.27 | 4.27 | 74 | 1004.0 |
| 20260507202904 | 24 | 263 | 3.2 | 6.4 | 0.00 | 4.27 | 4.27 | 75 | 1003.9 |
| 20260507202401 | 24 | 248 | 1.6 | 3.2 | 0.00 | 4.27 | 4.27 | 76 | 1003.7 |
| 20260507201856 | 25 | 201 | 0.0 | 0.0 | 0.00 | 4.27 | 4.27 | 73 | 1003.8 |
| 20260507201352 | 25 | 243 | 0.0 | 0.0 | 0.00 | 4.27 | 4.27 | 76 | 1004.0 |
| 20260507200848 | 23 | 214 | 4.8 | 6.4 | 0.00 | 4.27 | 4.27 | 76 | 1004.1 |
| 20260507200344 | 23 | 279 | 4.8 | 9.7 | 0.00 | 4.27 | 4.27 | 76 | 1004.2 |
| 20260507195841 | 24 | 298 | 1.6 | 3.2 | 0.00 | 4.27 | 4.27 | 75 | 1004.1 |
| 20260507195338 | 23 | 285 | 3.2 | 4.8 | 0.00 | 4.27 | 4.27 | 75 | 1004.2 |
| 20260507194835 | 24 | 347 | 0.0 | 3.2 | 0.00 | 4.27 | 4.27 | 75 | 1004.3 |
| 20260507194331 | 25 | 134 | 1.6 | 3.2 | 0.00 | 4.27 | 4.27 | 74 | 1004.1 |
| 20260507193828 | 24 | 280 | 0.0 | 0.0 | 0.00 | 4.27 | 4.27 | 74 | 1004.3 |
| 20260507193326 | 24 | 293 | 3.2 | 6.4 | 0.00 | 4.27 | 4.27 | 73 | 1004.6 |
| 20260507192821 | 23 | 276 | 11.3 | 14.5 | 0.00 | 4.27 | 4.27 | 73 | 1004.5 |
| 20260507192318 | 24 | 231 | 1.6 | 6.4 | 0.00 | 4.27 | 4.27 | 73 | 1004.6 |
| 20260507191814 | 23 | 174 | 0.0 | 0.0 | 0.00 | 4.27 | 4.27 | 73 | 1004.7 |
| 20260507191310 | 23 | 333 | 0.0 | 0.0 | 0.00 | 4.27 | 4.27 | 77 | 1004.7 |
| 20260507190808 | 22 | 264 | 0.0 | 0.0 | 0.00 | 4.27 | 4.27 | 78 | 1004.9 |
| 20260507190306 | 22 | 281 | 3.2 | 6.4 | 0.00 | 4.27 | 4.27 | 78 | 1004.9 |
| 20260507185804 | 23 | 288 | 0.0 | 0.0 | 0.00 | 4.27 | 4.27 | 78 | 1005.0 |
| 20260507185301 | 23 | 329 | 6.4 | 12.9 | 0.00 | 4.27 | 4.27 | 76 | 1004.8 |
| 20260507184758 | 23 | 224 | 3.2 | 4.8 | 0.00 | 4.27 | 4.27 | 75 | 1004.8 |
| 20260507184256 | 23 | 221 | 1.6 | 4.8 | 0.00 | 4.27 | 4.27 | 76 | 1004.6 |
| 20260507183753 | 24 | 260 | 0.0 | 0.0 | 0.00 | 4.27 | 4.27 | 75 | 1004.6 |
| 20260507183250 | 25 | 303 | 0.0 | 1.6 | 0.00 | 4.27 | 4.27 | 75 | 1004.6 |
| 20260507182747 | 24 | 34 | 0.0 | 0.0 | 0.00 | 4.27 | 4.27 | 77 | 1004.6 |
| 20260507182242 | 23 | 192 | 0.0 | 0.0 | 0.00 | 4.27 | 4.27 | 81 | 1004.8 |
| 20260507181739 | 22 | 210 | 0.0 | 0.0 | 0.00 | 4.27 | 4.27 | 82 | 1004.9 |
| 20260507181235 | 22 | 250 | 0.0 | 0.0 | 0.00 | 4.27 | 4.27 | 83 | 1004.5 |
| 20260507180732 | 22 | 257 | 0.0 | 0.0 | 0.00 | 4.27 | 4.27 | 86 | 1004.7 |
| 20260507180229 | 21 | 282 | 4.8 | 4.8 | 0.00 | 4.27 | 4.27 | 88 | 1004.8 |
| 20260507175724 | 21 | 291 | 0.0 | 0.0 | 0.00 | 4.27 | 4.27 | 88 | 1004.8 |
| 20260507175222 | 21 | 234 | 0.0 | 1.6 | 0.00 | 4.27 | 4.27 | 90 | 1004.9 |
| 20260507174720 | 21 | 309 | 1.6 | 1.6 | 0.00 | 4.27 | 4.27 | 90 | 1004.9 |
| 20260507174217 | 20 | 5 | 1.6 | 3.2 | 0.00 | 4.27 | 4.27 | 91 | 1004.7 |
| 20260507173715 | 20 | 300 | 4.8 | 4.8 | 0.00 | 4.27 | 4.27 | 91 | 1004.9 |
| 20260507173211 | 20 | 67 | 0.0 | 0.0 | 0.00 | 4.27 | 4.27 | 94 | 1005.0 |
| 20260507172708 | 20 | 255 | 3.2 | 3.2 | 0.00 | 4.27 | 4.27 | 95 | 1005.2 |
| 20260507172205 | 19 | 281 | 4.8 | 6.4 | 0.00 | 4.27 | 4.27 | 97 | 1005.3 |
| 20260507171704 | 18 | 235 | 4.8 | 4.8 | 0.00 | 4.27 | 4.27 | 99 | 1005.8 |
| 20260507171202 | 18 | 250 | 1.6 | 3.2 | 0.00 | 4.27 | 4.27 | 99 | 1005.6 |
| 20260507170659 | 18 | 242 | 3.2 | 4.8 | 0.00 | 4.27 | 4.27 | 99 | 1005.4 |
| 20260507170156 | 18 | 247 | 1.6 | 1.6 | 0.00 | 4.27 | 4.27 | 99 | 1005.4 |
| 20260507165652 | 19 | 193 | 0.0 | 0.0 | 0.00 | 4.27 | 4.27 | 99 | 1005.5 |